Date String (YYYY-MM-DD hh:mm:ss) UTC,Instrument flags,absolute air pressure of the measurement (hPa),sample flow rate (lpm),inlet stack bypass flow (lpm),air temperature of the measurement (°C),ambient temperature measured by the external sensor (°C),aerosol sample conditioner tube jacket temperature (°C),OPC LED temperature (°C),internal box temperature (°C),relative humidity of the measurement (%),span deviation,mass concentration of particles derived from Lorenz-Mie calculation of OPC scattering (μg/m³),mass concentration of particles derived from Lorenz-Mie calculation of OPC scattering (μg/m³),mass concentration of particles derived from Lorenz-Mie calculation of OPC scattering (μg/m³)
DateTimeUTC,F1_M11,P_M11,Q1_M11,Q2_M11,T1_M11,T2_M11,T3_M11,T4_M11,T5_M11,U1_M11,ZSPAN_M11,X0_M11,X2_M11,X1_M11
2023-12-01 02:00:00,SystemResetWarning,0821.9,5.00,000.00,021.8,020.8,000.0,030.2,023.0,11.5,0000.0,0011.72,0005.69,0005.15
2023-12-01 02:01:00,SystemResetWarning,0822.0,5.00,000.00,021.8,020.8,000.0,030.2,023.0,11.5,0000.0,0011.91,0005.72,0005.17
2023-12-01 02:02:00,SystemResetWarning,0821.9,4.99,000.00,021.8,020.8,000.0,030.2,023.0,11.6,0000.0,0011.95,0005.73,0005.17
2023-12-01 02:03:00,SystemResetWarning,0821.9,4.99,000.00,021.8,020.8,000.0,030.2,023.0,11.6,0000.0,0011.49,0005.74,0005.18
2023-12-01 02:04:00,SystemResetWarning,0821.9,5.00,000.00,021.8,020.8,000.0,030.2,023.0,11.6,0000.0,0011.40,0005.74,0005.19
2023-12-01 02:05:00,SystemResetWarning,0822.0,5.01,000.00,021.8,020.8,000.0,030.2,023.0,11.5,0000.0,0011.47,0005.75,0005.19
2023-12-01 02:06:00,SystemResetWarning,0821.9,5.00,000.00,021.8,020.8,000.0,030.2,023.0,11.5,0000.0,0011.36,0005.72,0005.16
2023-12-01 02:07:00,SystemResetWarning,0821.9,5.00,000.00,021.8,020.8,000.0,030.2,023.0,11.5,0000.0,0011.62,0005.67,0005.13
2023-12-01 02:08:00,SystemResetWarning,0821.9,5.01,000.00,021.8,020.8,000.0,030.2,023.0,11.6,0000.0,0011.26,0005.68,0005.12
2023-12-01 02:09:00,SystemResetWarning,0821.9,5.00,000.00,021.8,020.8,000.0,030.1,023.0,11.6,0000.0,0010.89,0005.64,0005.09
2023-12-01 02:10:00,SystemResetWarning,0821.9,5.00,000.00,021.8,020.8,000.0,030.1,023.0,11.6,0000.0,0011.40,0005.62,0005.06
2023-12-01 02:11:00,SystemResetWarning,0822.0,5.00,000.00,021.8,020.8,000.0,030.1,023.0,11.5,0000.0,0011.30,0005.58,0005.02
2023-12-01 02:12:00,SystemResetWarning,0821.9,5.00,000.00,021.8,020.8,000.0,030.1,023.1,11.6,0000.0,0010.77,0005.54,0005.00
2023-12-01 02:13:00,SystemResetWarning,0822.0,5.00,000.00,021.8,020.8,000.0,030.1,023.1,11.6,0000.0,0010.35,0005.52,0004.98
2023-12-01 02:14:00,SystemResetWarning,0822.0,5.00,000.00,021.8,020.8,000.0,030.1,023.1,11.6,0000.0,0010.35,0005.49,0004.94
2023-12-01 02:15:00,SystemResetWarning,0822.0,5.00,000.00,021.8,020.8,000.0,030.1,023.0,11.6,0000.0,0010.35,0005.47,0004.91
2023-12-01 02:16:00,SystemResetWarning,0822.0,5.00,000.00,021.8,020.8,000.0,030.1,023.0,11.6,0000.0,0010.71,0005.45,0004.91
2023-12-01 02:17:00,SystemResetWarning,0821.9,5.00,000.00,021.8,020.8,000.0,030.1,023.0,11.6,0000.0,0011.51,0005.47,0004.92
2023-12-01 02:18:00,SystemResetWarning,0822.0,4.99,000.00,021.8,020.8,000.0,030.1,023.0,11.6,0000.0,0011.41,0005.52,0004.92
2023-12-01 02:19:00,SystemResetWarning,0822.0,5.00,000.00,021.8,020.8,000.0,030.1,023.0,11.6,0000.0,0011.11,0005.50,0004.90
2023-12-01 02:20:00,SystemResetWarning,0822.0,5.00,000.00,021.8,020.8,000.0,030.1,023.0,11.6,0000.0,0010.97,0005.48,0004.89
2023-12-01 02:21:00,SystemResetWarning,0822.0,5.00,000.00,021.7,020.7,000.0,030.1,022.9,11.6,0000.0,0010.41,0005.48,0004.88
2023-12-01 02:22:00,SystemResetWarning,0821.9,5.00,000.00,021.7,020.7,000.0,030.1,022.9,11.7,0000.0,0010.47,0005.45,0004.87
2023-12-01 02:23:00,SystemResetWarning,0821.9,5.00,000.00,021.7,020.7,000.0,030.1,022.9,11.7,0000.0,0010.51,0005.46,0004.86
2023-12-01 02:24:00,SystemResetWarning,0821.9,5.00,000.00,021.7,020.7,000.0,030.1,022.9,11.7,0000.0,0010.55,0005.45,0004.84
2023-12-01 02:25:00,SystemResetWarning,0821.9,5.00,000.00,021.7,020.7,000.0,030.1,023.0,11.7,0000.0,0010.53,0005.46,0004.85
2023-12-01 02:26:00,SystemResetWarning,0822.0,5.00,000.00,021.7,020.7,000.0,030.1,022.9,11.7,0000.0,0010.53,0005.43,0004.85
2023-12-01 02:27:00,SystemResetWarning,0821.9,5.00,000.00,021.7,020.7,000.0,030.1,023.0,11.7,0000.0,0011.39,0005.42,0004.84
2023-12-01 02:28:00,SystemResetWarning,0822.0,5.00,000.00,021.7,020.7,000.0,030.0,022.9,11.7,0000.0,0011.60,0005.43,0004.82
2023-12-01 02:29:00,SystemResetWarning,0822.0,5.00,000.00,021.7,020.7,000.0,030.0,022.9,11.7,0000.0,0011.23,0005.39,0004.80
2023-12-01 02:30:00,SystemResetWarning,0822.0,5.00,000.00,021.7,020.7,000.0,030.0,022.9,11.7,0000.0,0011.17,0005.33,0004.79
2023-12-01 02:31:00,SystemResetWarning,0822.0,5.00,000.00,021.7,020.7,000.0,030.0,022.9,11.8,0000.0,0010.93,0005.28,0004.77
2023-12-01 02:32:00,SystemResetWarning,0821.9,5.00,000.00,021.7,020.6,000.0,030.0,022.9,11.8,0000.0,0010.86,0005.29,0004.74
2023-12-01 02:33:00,SystemResetWarning,0822.0,5.01,000.00,021.6,020.7,000.0,030.0,022.9,11.8,0000.0,0010.90,0005.26,0004.73
2023-12-01 02:34:00,SystemResetWarning,0822.0,5.01,000.00,021.6,020.6,000.0,030.0,022.8,11.8,0000.0,0011.53,0005.26,0004.72
2023-12-01 02:35:00,SystemResetWarning,0822.0,5.01,000.00,021.6,020.6,000.0,030.0,022.8,11.8,0000.0,0011.66,0005.24,0004.70
2023-12-01 02:36:00,SystemResetWarning,0822.0,4.99,000.00,021.6,020.6,000.0,030.0,022.7,11.8,0000.0,0011.81,0005.25,0004.69
2023-12-01 02:37:00,SystemResetWarning,0822.0,4.99,000.00,021.6,020.6,000.0,030.0,022.7,11.8,0000.0,0011.99,0005.26,0004.67
2023-12-01 02:38:00,SystemResetWarning,0822.0,4.99,000.00,021.5,020.6,000.0,030.0,022.7,11.8,0000.0,0011.02,0005.24,0004.65
2023-12-01 02:39:00,SystemResetWarning,0822.0,5.00,000.00,021.5,020.6,000.0,030.0,022.7,11.8,0000.0,0010.30,0005.22,0004.63
2023-12-01 02:40:00,SystemResetWarning,0822.0,5.01,000.00,021.5,020.5,000.0,030.0,022.7,11.8,0000.0,0010.39,0005.20,0004.61
2023-12-01 02:41:00,SystemResetWarning,0822.0,4.99,000.00,021.5,020.5,000.0,029.9,022.7,11.9,0000.0,0010.35,0005.20,0004.59
2023-12-01 02:42:00,SystemResetWarning,0822.0,4.99,000.00,021.5,020.5,000.0,029.9,022.7,11.9,0000.0,0010.38,0005.19,0004.60
2023-12-01 02:43:00,SystemResetWarning,0822.0,5.00,000.00,021.5,020.5,000.0,029.9,022.6,11.9,0000.0,0010.24,0005.14,0004.59
2023-12-01 02:44:00,SystemResetWarning,0822.0,5.01,000.00,021.4,020.4,000.0,029.9,022.6,11.8,0000.0,0010.01,0005.12,0004.59
2023-12-01 02:45:00,SystemResetWarning,0822.0,5.00,000.00,021.4,020.4,000.0,029.9,022.6,11.8,0000.0,0009.41,0005.08,0004.57
2023-12-01 02:46:00,SystemResetWarning,0822.0,5.00,000.00,021.4,020.4,000.0,029.9,022.6,11.8,0000.0,0009.19,0005.06,0004.56
2023-12-01 02:47:00,SystemResetWarning,0822.0,4.99,000.00,021.4,020.4,000.0,029.9,022.6,11.8,0000.0,0009.56,0005.07,0004.56
2023-12-01 02:48:00,SystemResetWarning,0822.0,4.99,000.00,021.4,020.4,000.0,029.9,022.6,11.8,0000.0,0009.58,0005.07,0004.57
2023-12-01 02:49:00,SystemResetWarning,0822.1,5.00,000.00,021.4,020.4,000.0,029.8,022.5,11.8,0000.0,0010.18,0005.06,0004.57
2023-12-01 02:50:00,SystemResetWarning,0822.1,5.00,000.00,021.3,020.4,000.0,029.8,022.5,11.8,0000.0,0009.96,0005.05,0004.58
2023-12-01 02:51:00,SystemResetWarning,0822.1,5.00,000.00,021.3,020.4,000.0,029.8,022.5,11.8,0000.0,0009.76,0005.04,0004.58
2023-12-01 02:52:00,SystemResetWarning,0822.1,5.01,000.00,021.3,020.4,000.0,029.8,022.5,11.8,0000.0,0010.05,0005.04,0004.58
2023-12-01 02:53:00,SystemResetWarning,0822.1,5.01,000.00,021.3,020.4,000.0,029.8,022.5,11.8,0000.0,0010.30,0005.08,0004.58
2023-12-01 02:54:00,SystemResetWarning,0822.1,5.01,000.00,021.3,020.3,000.0,029.8,022.5,11.8,0000.0,0010.55,0005.10,0004.58
2023-12-01 02:55:00,SystemResetWarning,0822.1,5.00,000.00,021.3,020.3,000.0,029.8,022.5,11.8,0000.0,0010.84,0005.12,0004.58
2023-12-01 02:56:00,SystemResetWarning,0822.1,4.99,000.00,021.3,020.3,000.0,029.8,022.5,11.9,0000.0,0010.69,0005.12,0004.58
2023-12-01 02:57:00,SystemResetWarning,0822.1,4.99,000.00,021.3,020.3,000.0,029.7,022.5,11.9,0000.0,0010.81,0005.15,0004.60
2023-12-01 02:58:00,SystemResetWarning,0822.1,5.00,000.00,021.3,020.3,000.0,029.7,022.5,11.9,0000.0,0010.39,0005.10,0004.60
2023-12-01 02:59:00,SystemResetWarning,0822.1,5.01,000.00,021.2,020.3,000.0,029.7,022.4,11.9,0000.0,0010.93,0005.07,0004.59
